Time,B instrument,Bx,By,Bz,sigma B,Ion instrument,Status,Tp_par,Tp_perp,carrot,r_sun,clat,clong,earth_he_angle,n_p,vp_x,vp_y,vp_z,vth_p_par,vth_p_perp
1980-05-02 00:00:19,-1,nan,nan,nan,nan,1,3,nan,nan,1694,0.59095716,-6.7518435,60.329346,283.28638,nan,554.299,-70.4228,-2.73963,nan,nan
1980-05-02 00:21:55,-1,nan,nan,nan,nan,1,3,nan,nan,1694,0.59078139,-6.7531137,60.144287,283.30054,nan,538.946,-57.8441,4.75898,nan,nan
1980-05-02 00:43:31,-1,nan,nan,nan,nan,1,3,nan,nan,1694,0.59059733,-6.7544441,59.959717,283.31519,nan,535.719,-61.2359,6.05595,nan,nan
1980-05-02 01:05:07,-1,nan,nan,nan,nan,1,3,nan,nan,1694,0.59041321,-6.7557745,59.775391,283.33008,nan,616.323,-60.8455,64.6563,nan,nan
1980-05-02 01:26:43,-1,nan,nan,nan,nan,1,3,nan,nan,1694,0.59023738,-6.7570429,59.594238,283.34424,nan,553.419,-78.7332,71.6011,nan,nan
1980-05-02 01:48:19,-1,nan,nan,nan,nan,1,3,nan,nan,1694,0.5900532,-6.7583723,59.409912,283.35913,nan,516.02,13.9173,1.609,nan,nan
1980-05-02 02:09:55,-1,nan,nan,nan,nan,1,3,nan,nan,1694,0.58987737,-6.7596397,59.224854,283.37329,nan,548.525,7.17831,0.806237,nan,nan
1980-05-02 02:31:31,-1,nan,nan,nan,nan,1,3,nan,nan,1694,0.58969307,-6.7609663,59.040527,283.38818,nan,567.124,-65.0084,-43.6033,nan,nan
1980-05-02 02:53:07,-1,nan,nan,nan,nan,1,3,nan,nan,1694,0.58950877,-6.7622938,58.860107,283.40308,nan,566.706,-38.0573,12.3443,nan,nan
1980-05-02 03:14:43,-1,nan,nan,nan,nan,1,3,nan,nan,1694,0.58933282,-6.7635584,58.675049,283.41724,nan,543.377,3.73628,8.7857,nan,nan
1980-05-02 03:36:19,-1,nan,nan,nan,nan,1,3,nan,nan,1694,0.5891484,-6.7648821,58.490967,283.43237,nan,547.115,4.72968,-12.6591,nan,nan
1980-05-02 03:57:55,-1,nan,nan,nan,nan,1,3,nan,nan,1694,0.58897233,-6.7661448,58.305908,283.44653,nan,567.267,-12.6154,-0.713639,nan,nan
1980-05-02 04:19:31,-1,nan,nan,nan,nan,1,3,nan,nan,1694,0.58878785,-6.7674665,58.125732,283.46167,nan,561.94,-17.043,-24.4563,nan,nan
1980-05-02 04:41:07,-1,nan,nan,nan,nan,1,3,nan,nan,1694,0.58860332,-6.7687874,57.941406,283.47656,nan,536.656,13.3806,-28.3123,nan,nan
1980-05-02 05:02:43,-1,nan,nan,nan,nan,1,3,nan,nan,1694,0.58842719,-6.7700481,57.756592,283.49097,nan,507.255,36.0776,2.69822,nan,nan
1980-05-02 05:24:19,-1,nan,nan,nan,nan,1,3,nan,nan,1694,0.58824253,-6.7713661,57.57251,283.5061,nan,510.345,29.5214,36.8308,nan,nan
1980-05-02 05:45:55,-1,nan,nan,nan,nan,1,3,nan,nan,1694,0.58806628,-6.772624,57.391602,283.52051,nan,518.725,0.433706,0.865795,nan,nan
1980-05-02 06:05:03,1,10.3,-7.0,-6.5,0.0,1,1,222168.0,273982.0,1694,0.58791238,-6.7433968,57.136444,283.44113,10.0494,518.187,0.959767,1.40358,60.5617,67.2541
1980-05-02 06:07:31,1,10.2,-6.8,-8.5,0.0,1,1,95306.4,283325.0,1694,0.58788162,-6.773941,57.207275,283.5354,8.38215,521.17,-8.19442,-2.55137,39.6661,68.3912
1980-05-02 06:26:39,1,9.2,-9.3,-7.0,0.0,1,1,106487.0,276885.0,1694,0.58773088,-6.7447724,56.952057,283.45596,8.45044,521.226,-8.54124,-3.14379,41.9281,67.6094
1980-05-02 06:29:07,1,9.0,-9.4,-7.0,0.223607,1,1,129943.0,268011.0,1694,0.58769691,-6.7752562,57.023193,283.55054,9.53554,532.956,-0.662002,-0.443185,46.3163,66.5173
1980-05-02 06:48:15,1,9.3,-8.6,-5.5,0.0,1,1,131876.0,267061.0,1694,0.58754963,-6.7461457,56.76767,283.47079,9.54784,532.799,-0.638882,-0.603835,46.6596,66.3992
1980-05-02 06:50:43,1,6.8,-7.2,-8.45,1.11467,1,1,129635.0,226725.0,1694,0.58752054,-6.7765121,56.838379,283.56494,10.4919,522.538,14.1438,-3.92526,46.2615,61.1798
1980-05-02 07:12:19,-1,nan,nan,nan,nan,1,3,nan,nan,1694,0.58734727,-6.7476764,56.565491,283.48737,nan,284.518,14.0757,-9.02806,nan,nan
1980-05-02 07:35:36,-1,nan,nan,nan,nan,1,3,nan,nan,1694,0.58714253,-6.7791986,56.459229,283.59595,nan,482.81,-11.3552,10.7982,nan,nan
1980-05-02 07:35:50,-1,nan,nan,nan,nan,1,3,nan,nan,1694,0.58714253,-6.7791986,56.455322,283.59595,nan,485.573,-0.241283,10.8536,nan,nan
1980-05-02 07:36:31,-1,nan,nan,nan,nan,1,3,nan,nan,1694,0.58713412,-6.7792578,56.452148,283.59668,nan,486.771,0.0727138,12.8597,nan,nan
1980-05-02 07:37:11,-1,nan,nan,nan,nan,1,3,nan,nan,1694,0.58712572,-6.7793179,56.445068,283.59741,nan,486.121,-0.131135,12.3581,nan,nan
1980-05-02 07:37:52,-1,nan,nan,nan,nan,1,3,nan,nan,1694,0.58712572,-6.7793179,56.437256,283.59741,nan,493.737,-10.1115,28.4703,nan,nan
1980-05-02 07:38:32,-1,nan,nan,nan,nan,1,3,nan,nan,1694,0.58711731,-6.779377,56.434082,283.59814,nan,488.244,-4.77885,23.5135,nan,nan
1980-05-02 07:39:13,1,11.55,-1.55556,-11.1,0.576842,1,1,93051.9,106911.0,1694,0.58710891,-6.7794371,56.426758,283.59863,11.8979,491.893,-3.56503,19.8543,39.1941,42.0115
1980-05-02 07:39:53,1,11.5611,-1.95,-10.9,1.0506,1,1,66994.4,95214.6,1694,0.58710891,-6.7794371,56.422852,283.59863,11.127,490.788,-1.53258,20.6172,33.2565,39.6469
1980-05-02 07:40:34,1,11.3278,-2.13889,-11.3222,0.959456,1,1,89133.5,100087.0,1694,0.58710051,-6.7794971,56.415771,283.59937,11.5783,492.631,-3.42053,20.6259,38.36,40.6487
1980-05-02 07:41:14,1,11.4611,-0.733333,-11.1611,0.898936,1,1,71667.4,93548.8,1694,0.58709216,-6.7795563,56.412598,283.6001,11.7354,488.582,-5.77686,19.3723,34.3969,39.2986
1980-05-02 07:41:55,1,8.33889,-4.55556,-12.2444,1.97697,1,1,62599.4,105248.0,1694,0.5870921,-6.7795563,56.404785,283.6001,10.4778,490.233,-3.23487,19.3546,32.1472,41.6836
1980-05-02 07:42:35,1,7.75556,-5.28333,-11.1722,1.68598,1,1,77468.8,98428.3,1694,0.58708376,-6.7796164,56.397705,283.60083,11.7716,509.196,18.2538,17.8192,35.762,40.3105
1980-05-02 07:43:16,1,8.06842,-5.02105,-11.1,1.39119,1,1,69500.6,84310.9,1694,0.58707535,-6.7796755,56.394531,283.60156,10.071,509.139,17.0769,21.0949,33.8729,37.3078
1980-05-02 07:43:56,1,9.15789,-4.43684,-10.9105,0.977872,1,1,54209.8,81962.6,1694,0.58707535,-6.7796755,56.386719,283.60156,10.1419,497.76,3.58483,20.3408,29.9155,36.7846
1980-05-02 07:44:37,1,8.46667,-0.861111,-12.1222,1.53756,1,1,83307.3,92223.6,1694,0.58706695,-6.7797356,56.383301,283.60205,9.85596,506.51,-6.50823,24.2056,37.0851,39.0192
1980-05-02 07:45:17,1,11.2889,-1.91111,-10.9889,1.19985,1,1,65174.8,79938.6,1694,0.58705854,-6.7797947,56.376221,283.60278,10.8646,490.387,-2.84172,22.6498,32.8018,36.3276
1980-05-02 07:45:58,1,11.4722,-1.44444,-10.8944,0.724569,1,1,63144.7,105322.0,1694,0.58705854,-6.7797947,56.368408,283.60278,11.2843,493.71,-6.63319,21.8823,32.2869,41.6982
1980-05-02 07:46:38,1,12.05,0.0611111,-10.5056,0.825201,1,1,63096.3,88908.6,1694,0.58705014,-6.7798548,56.365234,283.60352,9.84446,489.639,-5.5712,17.5525,32.2745,38.3116
1980-05-02 07:47:19,1,12.6333,-0.0222222,-10.0278,1.19831,1,1,60952.5,99546.3,1694,0.58704174,-6.7799139,56.358154,283.60425,10.5339,486.554,2.79723,9.5494,31.7215,40.5388
1980-05-02 07:47:59,1,12.9556,0.972222,-9.33889,0.948781,1,1,55450.6,91944.3,1694,0.58704174,-6.7799139,56.354248,283.60425,9.95972,488.322,-5.58382,12.8622,30.256,38.9601
1980-05-02 07:48:40,1,12.1105,-0.968421,-9.37895,1.16958,1,1,77436.1,98957.9,1694,0.58703333,-6.779974,56.347168,283.60498,11.2108,495.596,-2.78026,13.2896,35.7544,40.4188
1980-05-02 07:49:20,1,12.3842,0.215789,-9.27368,0.999668,1,1,72362.4,90869.2,1694,0.58702493,-6.7800331,56.343994,283.60571,9.82874,494.636,-7.06396,13.3253,34.5632,38.7317
1980-05-02 07:50:01,1,12.5333,0.794444,-9.84444,0.858095,1,1,82973.8,108087.0,1694,0.58701652,-6.7800932,56.33667,283.6062,8.3555,496.366,-11.4447,8.07835,37.0108,42.2421
1980-05-02 07:50:41,1,11.1053,-0.110526,-11.3,0.732241,1,1,52517.5,104913.0,1694,0.58701652,-6.7800932,56.328857,283.6062,7.08808,498.778,-2.24381,8.83985,29.4449,41.6172
1980-05-02 07:51:22,1,10.85,-0.15,-11.9556,1.19523,1,1,48779.0,100394.0,1694,0.58700812,-6.7801533,56.325684,283.60693,7.10211,497.096,-13.4498,7.59922,28.3775,40.7109
1980-05-02 07:52:02,1,11.1579,-0.373684,-11.0526,2.26867,1,1,57172.9,100748.0,1694,0.58699971,-6.7802124,56.318604,283.60767,6.8326,494.956,-12.72,8.95179,30.7223,40.7827
1980-05-02 07:52:43,1,11.9111,1.41111,-10.3667,0.422661,1,1,79210.8,106127.0,1694,0.58699971,-6.7802124,56.314697,283.60767,8.15748,498.692,-10.9417,3.43802,36.1618,41.8572
1980-05-02 07:53:23,1,11.8158,1.33684,-10.4,0.497862,1,1,69541.0,96272.6,1694,0.58699131,-6.7802725,56.307617,283.6084,7.46021,495.892,-6.99498,7.22078,33.8827,39.8666
1980-05-02 07:54:04,1,11.4111,0.583333,-11.1611,0.758125,1,1,72259.3,97668.3,1694,0.58698291,-6.7803316,56.300537,283.60913,7.54804,500.982,-14.0475,9.28167,34.5386,40.1545
1980-05-02 07:54:44,1,11.4263,1.72632,-11.4421,0.92281,1,1,64555.7,103700.0,1694,0.58698291,-6.7803316,56.296631,283.60913,7.58002,499.389,-11.1997,10.4173,32.6457,41.376
1980-05-02 07:55:25,1,11.2944,3.12778,-11.4333,0.675177,1,1,72182.2,96768.5,1694,0.5869745,-6.7803917,56.289307,283.60962,8.61627,501.953,-20.7611,13.5345,34.5202,39.9692
1980-05-02 07:56:05,1,11.5167,3.22778,-11.4167,0.942989,1,1,76214.6,111809.0,1694,0.5869661,-6.7804508,56.286133,283.61035,8.67539,499.774,-18.356,15.5765,35.4713,42.9631
1980-05-02 07:56:46,1,11.4833,3.93889,-11.6278,0.730445,1,1,60781.9,89943.0,1694,0.5869661,-6.7804508,56.27832,283.61035,8.69645,501.033,-34.811,15.7185,31.6771,38.5338
1980-05-02 07:57:26,1,11.6833,3.45556,-11.5722,1.21714,1,1,63285.2,112724.0,1694,0.58695769,-6.7805109,56.27124,283.61108,8.75831,503.837,-32.607,15.8682,32.3228,43.1385
1980-05-02 07:58:07,1,12.1947,2.77368,-10.8316,0.512341,1,1,63635.8,86350.9,1694,0.58694929,-6.78057,56.268066,283.61182,8.81273,501.528,-29.1531,17.6313,32.4122,37.7565
1980-05-02 07:58:47,1,12.4611,2.78889,-10.4556,0.397562,1,1,58373.4,107086.0,1694,0.58694929,-6.78057,56.260254,283.61182,9.20776,496.589,-29.7899,15.3859,31.0431,42.046
1980-05-02 07:59:28,1,12.6053,2.66842,-10.5947,0.382512,1,1,69800.2,98522.1,1694,0.58694088,-6.7806301,56.25708,283.61255,8.7268,498.518,-25.4945,13.9565,33.9458,40.3297
1980-05-02 08:00:08,1,12.5158,2.63684,-10.9789,0.674383,1,1,68423.1,121380.0,1694,0.58693254,-6.7806902,56.25,283.61328,9.1237,497.034,-21.1789,8.86374,33.6093,44.7643
1980-05-02 08:00:49,1,12.5556,1.45556,-11.0,0.929423,1,1,61301.3,95424.0,1694,0.58693248,-6.7806902,56.246094,283.61328,8.54844,503.274,-23.1869,16.5792,31.8121,39.6905
1980-05-02 08:01:29,1,11.6611,3.28889,-10.8556,0.857159,1,1,85240.7,113260.0,1694,0.58692408,-6.7807493,56.23877,283.61377,11.4424,497.859,-35.1716,21.8762,37.513,43.2411
1980-05-02 08:02:10,1,12.6889,1.02778,-10.2722,0.66458,1,1,69641.6,94297.3,1694,0.58691567,-6.7808084,56.231689,283.6145,10.4225,503.223,-30.7668,24.5782,33.9072,39.4555
1980-05-02 08:02:50,1,12.4667,1.64444,-10.6611,0.424737,1,1,57493.9,109096.0,1694,0.58691567,-6.7808084,56.227783,283.6145,10.1108,494.924,-29.3749,17.5279,30.8084,42.4387
1980-05-02 08:03:31,1,12.5,2.27368,-10.5,0.412747,1,1,74269.2,108989.0,1694,0.58690727,-6.7808685,56.220703,283.61523,10.9618,500.226,-35.5974,21.8639,35.0157,42.418
1980-05-02 08:04:11,1,12.4444,2.6,-10.9556,0.470749,1,1,61825.4,101613.0,1694,0.58689886,-6.7809277,56.217529,283.61597,10.9445,495.853,-37.5101,18.9294,31.9478,40.9575
1980-05-02 08:04:52,1,12.9105,2.79474,-10.6789,0.604324,1,1,60890.9,92440.5,1694,0.58689886,-6.7809277,56.209717,283.61597,10.4608,499.697,-37.3686,17.3512,31.7055,39.0651
1980-05-02 08:05:32,1,12.2842,4.28421,-11.1526,0.355253,1,1,56679.8,105537.0,1694,0.58689046,-6.7809877,56.202637,283.6167,9.77154,503.914,-39.8525,17.0995,30.5895,41.7407
1980-05-02 08:06:13,1,12.5167,4.26667,-11.3167,0.293447,1,1,52260.2,99697.6,1694,0.58688205,-6.7810469,56.199463,283.61743,9.71191,506.895,-40.9593,17.24,29.3727,40.5695
1980-05-02 08:06:53,1,12.7722,2.92778,-10.4833,1.03218,1,1,64268.8,109660.0,1694,0.58688205,-6.7810469,56.19165,283.61743,10.6124,500.557,-41.3785,19.9468,32.573,42.5483
1980-05-02 08:07:34,1,12.0667,3.77778,-11.0056,1.09444,1,1,80546.8,114565.0,1694,0.58687365,-6.7811069,56.188232,283.61792,10.8916,498.893,-47.7173,26.1612,36.4655,43.4894
1980-05-02 08:08:14,1,12.2167,0.666667,-9.08333,4.08622,1,1,53609.9,118147.0,1694,0.58686525,-6.7811661,56.181152,283.61865,11.3222,499.469,-45.3873,30.231,29.7496,44.164
1980-05-02 08:08:55,1,14.2158,-7.82105,-1.97368,0.999307,1,1,59819.9,110953.0,1694,0.58686525,-6.7811661,56.177246,283.61865,8.04894,499.144,5.73239,-12.5633,31.4254,42.7984
1980-05-02 08:45:17,2,10.85,-9.89,-4.86,0.0,1,1,57940.8,108392.0,1694,0.58655417,-6.7833691,55.866943,283.64429,10.5396,494.799,15.3178,1.0951,30.9279,42.3015
1980-05-02 08:45:57,1,12.4278,-9.86667,-3.74444,0.734868,1,1,55493.0,97978.5,1694,0.58655417,-6.7833691,55.859131,283.64429,9.26333,492.019,10.9781,2.88753,30.2675,40.2183
1980-05-02 08:46:38,1,12.8778,-9.03889,-4.53889,0.53524,1,1,57470.3,107397.0,1694,0.58654577,-6.7834282,55.855957,283.64502,9.05068,485.047,-0.430615,7.90577,30.8021,42.1069
1980-05-02 08:47:18,1,13.2111,-8.51111,-4.5,0.553552,1,1,55336.5,87928.1,1694,0.58653736,-6.7834883,55.848877,283.64575,9.43186,485.083,-0.723191,6.72677,30.2248,38.0997
1980-05-02 08:47:59,1,13.1778,-8.9,-4.5,0.518069,1,1,51236.3,98430.0,1694,0.58653736,-6.7834883,55.844971,283.64575,8.63757,481.046,-3.6305,4.92485,29.0835,40.3108
1980-05-02 08:48:40,1,13.1882,-8.67647,-4.41176,0.843169,1,1,50900.9,91807.0,1694,0.58652896,-6.7835474,55.837891,283.64648,8.79427,485.221,-1.70248,7.03066,28.9881,38.931
1980-05-02 08:49:20,1,12.8611,-5.17222,-4.77222,4.18579,1,1,60686.8,124612.0,1694,0.58652055,-6.7836075,55.834473,283.64697,10.4121,485.176,3.07452,6.96275,31.6523,45.3564
1980-05-02 08:50:01,1,13.8706,4.34118,-4.88824,0.503758,1,1,97032.0,116846.0,1694,0.58651215,-6.7836666,55.827393,283.64771,12.1008,480.128,-34.921,9.80078,40.0235,43.9202
1980-05-02 08:50:41,1,13.5333,5.61111,-4.12778,1.15021,1,1,112442.0,118665.0,1694,0.58651215,-6.7836666,55.81958,283.64771,12.928,478.32,-31.631,6.83633,43.0847,44.2608
1980-05-02 08:51:22,1,12.3167,8.05,-3.70556,2.47969,1,1,94039.0,123713.0,1694,0.58650374,-6.7837267,55.816406,283.64844,13.4244,488.677,-48.6509,1.88492,39.4014,45.1924
1980-05-02 08:52:02,1,14.9,2.79444,-3.42222,0.86025,1,1,89838.1,107262.0,1694,0.58649534,-6.7837858,55.809326,283.64917,11.5746,482.407,-30.8286,4.91363,38.5113,42.0805
1980-05-02 08:52:43,1,15.0889,1.62222,-3.5,0.789124,1,1,83754.7,112288.0,1694,0.58649534,-6.7837858,55.80542,283.64917,11.8497,482.472,-27.855,2.00865,37.1846,43.0552
1980-05-02 08:53:23,1,15.1474,0.842105,-3.85789,0.743392,1,1,86815.3,110604.0,1694,0.58648694,-6.7838449,55.79834,283.6499,11.8385,482.146,-24.7924,7.47387,37.8579,42.7311
1980-05-02 08:54:04,1,15.1882,0.658824,-3.82353,0.376471,1,1,69767.4,106624.0,1694,0.58647853,-6.783905,55.79126,283.65063,11.0621,481.834,-24.1958,4.94328,33.9378,41.9551
1980-05-02 08:54:44,1,15.1611,0.588889,-3.84444,0.736546,1,1,76857.1,112963.0,1694,0.58647853,-6.783905,55.787354,283.65063,11.4948,481.793,-20.9379,6.53889,35.6205,43.1843
1980-05-02 08:55:25,1,15.0529,-0.129412,-4.4,0.510919,1,1,64758.7,109116.0,1694,0.58647013,-6.7839642,55.780029,283.65112,11.0818,482.147,-22.4208,7.9085,32.6969,42.4425
1980-05-02 08:56:05,1,14.8889,-0.0722222,-3.28889,0.64943,1,1,88053.0,123242.0,1694,0.58646172,-6.7840242,55.776855,283.65186,12.8199,475.408,-22.1711,6.49461,38.1268,45.1063
1980-05-02 08:56:46,1,14.9111,-0.455556,-3.63889,0.72361,1,1,73203.1,105618.0,1694,0.58646172,-6.7840242,55.769043,283.65186,11.8052,478.826,-24.0496,6.81887,34.7634,41.7568
1980-05-02 08:57:26,1,14.1889,-1.38889,-4.60556,0.434933,1,1,83276.1,119316.0,1694,0.58645332,-6.7840834,55.761963,283.65259,12.4445,478.706,-21.3394,12.0434,37.0781,44.382
1980-05-02 08:58:07,1,14.2389,-2.02222,-5.3,0.812879,1,1,65206.8,111244.0,1694,0.58644491,-6.7841434,55.758789,283.65332,11.0933,480.079,-18.9092,7.06842,32.8099,42.8544
1980-05-02 08:58:47,1,14.6579,-3.00526,-4.83158,0.552356,1,1,51692.1,130738.0,1694,0.58644491,-6.7841434,55.750977,283.65332,10.6118,479.398,-19.7816,11.1477,29.2126,46.4579
1980-05-02 08:59:28,1,13.3,-3.98235,-5.66471,1.08691,1,1,63001.1,131159.0,1694,0.58643651,-6.7842026,55.747803,283.65405,12.7349,478.945,-16.8552,13.4193,32.2502,46.5325
1980-05-02 09:00:08,1,12.0944,-5.35,-6.48889,0.792052,1,1,57222.0,130422.0,1694,0.58642811,-6.7842627,55.740723,283.65479,11.9248,480.359,-16.9001,13.2262,30.7355,46.4016
1980-05-02 09:00:49,1,11.9176,-4.88235,-7.33529,0.423448,1,1,66171.5,125094.0,1694,0.58642805,-6.7842627,55.736816,283.65479,12.1829,483.448,-13.545,15.1722,33.0517,45.4439
1980-05-02 09:01:29,1,12.8556,-4.28889,-6.88333,1.94547,1,1,58814.5,139073.0,1694,0.58641964,-6.7843218,55.729492,283.65527,12.4101,479.481,-13.1537,17.5408,31.1602,47.9158
1980-05-02 09:02:10,1,13.5,-5.84444,-3.6,2.46942,1,1,54615.0,115022.0,1694,0.58641124,-6.7843809,55.722412,283.65601,10.9531,482.318,-10.2503,5.11132,30.0271,43.5761
1980-05-02 09:02:50,1,12.5833,-5.65556,-5.37222,1.45765,1,1,54490.8,121756.0,1694,0.58641124,-6.7843809,55.718506,283.65601,10.8266,483.156,-6.2936,9.27127,29.993,44.8335
1980-05-02 09:03:31,1,12.5,-6.83333,-4.73333,0.622718,1,1,58216.7,108077.0,1694,0.58640283,-6.78444,55.711426,283.65674,10.7917,486.445,-9.25346,7.85387,31.0014,42.24
1980-05-02 09:04:11,1,13.0737,-6.38421,-4.45263,0.906395,1,1,57565.1,128907.0,1694,0.58639443,-6.7845001,55.708252,283.65747,10.8871,487.467,-10.0999,15.54,30.8274,46.1313
1980-05-02 09:04:52,1,12.5474,-7.21053,-3.68947,0.78012,1,1,64741.9,112823.0,1694,0.58639443,-6.7845001,55.700439,283.65747,10.5626,483.314,-6.59504,8.21621,32.6927,43.1575
1980-05-02 09:05:32,1,12.0556,-8.07222,-0.75,1.58194,1,1,92114.9,124877.0,1694,0.58638602,-6.7845592,55.693359,283.6582,11.4131,488.079,0.194932,0.924317,38.9962,45.4045
1980-05-02 09:06:13,1,11.7105,-8.54737,-1.98421,1.11663,1,1,76389.7,113060.0,1694,0.58637762,-6.7846184,55.690186,283.65894,10.6681,487.618,1.49077,-2.67536,35.512,43.2029
1980-05-02 09:06:53,1,11.3222,-8.88889,-2.11111,2.05841,1,1,73136.0,135629.0,1694,0.58637762,-6.7846184,55.682373,283.65894,11.2355,491.508,4.28646,12.3679,34.7475,47.3189
1980-05-02 09:07:34,1,10.0778,-9.87778,-0.0111111,1.55599,1,1,90549.2,114912.0,1694,0.58636922,-6.7846775,55.678955,283.65942,11.1575,504.81,19.4002,-4.84469,38.6634,43.5552
1980-05-02 09:08:14,1,9.2,-10.2444,1.16111,2.63404,1,1,89002.8,123817.0,1694,0.58636075,-6.7847376,55.671875,283.66016,11.2758,487.392,3.63487,-1.64489,38.3318,45.2115
1980-05-02 09:08:55,1,10.7889,-8.9,-0.4,2.64195,1,1,65966.3,118711.0,1694,0.58636075,-6.7847376,55.667969,283.66016,11.3638,484.119,0.133958,1.40385,33.0004,44.2694
1980-05-02 09:09:35,1,12.9526,-7.22632,-2.11053,0.718994,1,1,57495.0,116496.0,1694,0.58635235,-6.7847967,55.660889,283.66089,9.7945,478.741,-7.4446,4.69159,30.8087,43.8545
1980-05-02 09:10:16,1,13.0889,-6.50556,-0.361111,1.66683,1,1,60347.0,124156.0,1694,0.58634394,-6.7848558,55.653809,283.66162,11.4621,476.925,1.21826,-7.94393,31.5635,45.2732
1980-05-02 09:10:56,1,13.1222,-6.1,-1.31111,0.625783,1,1,64126.6,125740.0,1694,0.58634394,-6.7848558,55.649902,283.66162,10.8,478.034,0.525958,0.632326,32.537,45.5611
1980-05-02 09:11:37,1,12.8059,-5.83529,0.647059,1.10907,1,1,61793.4,113701.0,1694,0.58633554,-6.784915,55.642822,283.66235,11.3618,477.468,-1.16698,-5.4113,31.9396,43.3251
1980-05-02 09:12:17,1,13.0667,-5.05,-1.62778,0.836033,1,1,68273.1,131629.0,1694,0.58632714,-6.7849751,55.639648,283.66309,11.6248,477.397,-0.707659,2.91477,33.5724,46.6158
1980-05-02 09:12:58,1,13.0647,-4.74118,-2.70588,0.99497,1,1,59736.0,116532.0,1694,0.58632714,-6.7849751,55.631836,283.66309,11.2722,478.41,-0.884661,-0.327591,31.4034,43.8612
1980-05-02 09:13:38,1,10.15,-7.89444,3.22222,1.47395,1,1,85360.5,121214.0,1694,0.58631873,-6.7850342,55.624756,283.66382,11.7541,485.518,4.49387,-13.6987,37.5393,44.7337
1980-05-02 09:14:19,1,9.77059,-7.85882,3.17059,0.727274,1,1,102699.0,115273.0,1694,0.58631033,-6.7850933,55.621338,283.66431,11.4756,492.152,5.23212,-22.0111,41.1758,43.6237
1980-05-02 09:14:59,1,9.13158,-7.96842,4.15263,0.953373,1,1,98833.3,133197.0,1694,0.58631033,-6.7850933,55.613525,283.66431,12.9451,488.755,6.90291,-23.5987,40.3933,46.8926
1980-05-02 09:15:40,1,8.87778,-8.74444,4.5,0.582883,1,1,96796.4,111331.0,1694,0.58630186,-6.7851524,55.610352,283.66504,11.9355,496.257,6.4063,-26.0588,39.9749,42.8713
1980-05-02 09:16:20,1,8.16842,-8.78421,5.42632,1.01055,1,1,101067.0,109817.0,1694,0.58629346,-6.7852125,55.603271,283.66577,11.6267,502.376,10.9008,-33.7735,40.8471,42.5786
1980-05-02 09:17:01,1,7.27222,-8.41111,4.8,1.74123,1,1,154258.0,110295.0,1694,0.58628505,-6.7852716,55.596191,283.6665,14.1966,487.02,21.1404,-39.3474,50.4641,42.6712
1980-05-02 09:17:41,1,7.55263,-7.11579,2.74737,4.60034,1,1,163778.0,127665.0,1694,0.58628505,-6.7852716,55.592285,283.6665,13.2615,500.631,9.28852,-32.7959,51.9979,45.9087
1980-05-02 09:18:22,1,9.24444,-1.65,-6.75556,1.639,1,1,113504.0,128985.0,1694,0.58627665,-6.7853308,55.585205,283.66724,15.1255,477.522,2.5236,6.63377,43.2877,46.1453
1980-05-02 09:19:02,1,9.92778,-4.61111,-5.75556,2.15791,1,1,116174.0,115787.0,1694,0.58626825,-6.7853899,55.582031,283.66797,11.229,485.132,0.608466,-6.02839,43.7937,43.7207
1980-05-02 09:19:43,1,8.81667,-5.22222,-5.72778,2.07729,1,1,131011.0,137559.0,1694,0.58626825,-6.7853899,55.574219,283.66797,12.9752,488.538,0.330184,8.14978,46.5063,47.6543
1980-05-02 09:20:23,1,9.69474,-5.80526,-5.13684,1.59247,1,1,95290.2,130697.0,1694,0.58625984,-6.78545,55.571045,283.6687,11.1178,486.39,7.52652,3.09649,39.6627,46.4506
1980-05-02 09:21:04,1,9.79444,-5.72222,-3.81111,1.49626,1,1,151203.0,103770.0,1694,0.58625144,-6.7855091,55.563721,283.66919,12.3881,491.361,12.8019,-6.95261,49.9618,41.3898
1980-05-02 09:21:44,1,9.22222,-8.08889,-1.87222,1.93828,1,1,74773.3,126205.0,1694,0.58625144,-6.7855091,55.555908,283.66919,11.1727,489.931,26.2669,-10.1265,35.1343,45.6453
1980-05-02 09:22:25,1,7.73684,-9.25263,-1.31053,1.13066,1,1,142614.0,122778.0,1694,0.58624303,-6.7855682,55.552734,283.66992,14.1877,492.69,35.7179,-12.6089,48.5221,45.0213
1980-05-02 09:23:05,1,7.91111,-8.87222,-0.344444,1.79534,1,1,182944.0,101038.0,1694,0.58623457,-6.7856274,55.545654,283.67065,15.6754,490.154,31.2855,-16.3581,54.9562,40.8414
1980-05-02 09:23:46,1,8.12222,-9.08333,0.8,1.03161,1,1,162149.0,109242.0,1694,0.58623457,-6.7856274,55.541748,283.67065,15.5906,492.962,23.7938,-19.2163,51.7387,42.4672
1980-05-02 09:24:26,1,6.86842,-10.1211,-0.4,0.704595,1,1,116943.0,115339.0,1694,0.58622617,-6.7856874,55.534668,283.67139,15.4654,487.012,29.5834,-10.3543,43.9384,43.6361
1980-05-02 09:25:07,1,7.23158,-9.97368,-0.184211,1.29905,1,1,149672.0,105783.0,1694,0.58621776,-6.7857466,55.527588,283.67212,16.1247,489.42,28.3199,-9.76667,49.7082,41.7894
1980-05-02 09:25:47,1,8.41818,-9.04545,-1.15455,1.46259,1,1,122553.0,125157.0,1694,0.58621776,-6.7857466,55.523682,283.67212,15.9235,487.078,25.9827,-8.55616,44.98,45.4555
1980-05-02 09:26:28,1,7.89444,-8.95,-2.93889,0.616316,1,1,110257.0,114121.0,1694,0.58620936,-6.7858057,55.516602,283.67285,14.2337,492.994,23.0924,-4.33032,42.6639,43.4051
1980-05-02 09:27:08,1,8.04211,-8.77368,-1.22105,2.36148,1,1,149641.0,115448.0,1694,0.58620095,-6.7858648,55.513184,283.67334,15.5773,483.957,25.1681,-12.4849,49.7031,43.6568
1980-05-02 09:27:49,1,9.12941,-5.62353,0.411765,4.05712,1,1,122361.0,109528.0,1694,0.58620095,-6.7858648,55.505371,283.67334,14.2266,485.653,21.046,-6.142,44.9447,42.5226
1980-05-02 09:28:29,-1,nan,nan,nan,nan,1,-3,nan,nan,1694,0.58619255,-6.7859249,55.502197,283.67407,nan,481.392,20.6429,-28.5135,nan,nan
1980-05-02 09:29:10,1,10.3667,-3.17222,-1.94444,4.85455,1,1,129886.0,134164.0,1694,0.58618414,-6.785984,55.495117,283.6748,16.8682,476.742,-21.0723,19.7025,46.3062,47.0627
1980-05-02 09:29:50,1,8.85,-6.82222,-1.68333,3.29344,1,1,141450.0,119006.0,1694,0.58618414,-6.785984,55.487305,283.6748,14.4085,490.45,30.7425,-13.0294,48.3236,44.3244
1980-05-02 09:30:31,1,7.37778,-7.49444,3.32778,4.44032,1,1,96604.0,135398.0,1694,0.58617568,-6.7860432,55.484131,283.67554,16.0648,476.25,10.9899,-14.3449,39.9352,47.2785
1980-05-02 09:31:11,1,3.25556,-9.37778,6.06111,2.48371,1,1,144933.0,125307.0,1694,0.58616728,-6.7861023,55.477051,283.67627,15.6613,515.096,33.6629,-43.2972,48.9149,45.4827
1980-05-02 09:31:52,1,4.82778,-8.29444,-4.41667,5.44105,1,1,158699.0,127356.0,1694,0.58616728,-6.7861023,55.473145,283.67627,21.3929,518.775,28.0237,-6.25845,51.1852,45.8531